Weather History for Pisco, Peru

Change the Weather History Date:

Tuesday, September 3, 2013

  Actual Average Record
Temperature  
Mean Temperature 60 °F -  
Max Temperature 68 °F 70 °F - ()
Min Temperature 52 °F 56 °F - ()
Degree Days  
Heating Degree Days 5    
Growing Degree Days 10 (Base 50)    
Moisture  
Dew Point 56 °F    
Average Humidity 85    
Maximum Humidity 94    
Minimum Humidity 75    
Precipitation  
Precipitation 0.00 in 0.00 in - ()
Sea Level Pressure  
Sea Level Pressure 29.99 in    
Wind  
Wind Speed 4 mph ()    
Max Wind Speed 12 mph    
Max Gust Speed -    
Visibility 4.0 miles    
Events      
T = Trace of Precipitation, MM = Missing Value Source: Averaged Metar Reports

Daily Weather History Graph

Daily Weather History Graph

Search for Another Location

Airport:

Trip Planner

Search our weather history database for the weather conditions in past years. The results will help you decide how hot, cold, wet, or windy it might be!

Date:

Astronomy

Sep. 03, 2013 Rise Set
Actual Time 6:08 AM PET 6:00 PM PET
Civil Twilight 5:46 AM PET 6:21 PM PET
Nautical Twilight 5:21 AM PET 6:46 PM PET
Astronomical Twilight 4:57 AM PET 7:11 PM PET
Moon 4:36 AM PET (9/3) 4:37 PM PET (9/3)
Length of Visible Light 12h 35m
Length of Day
11h 52m
Waning Crescent, 3% of the Moon is Illuminated
Sep 3
Waning Crescent
Sep 5
New
Sep 12
First Quarter
Sep 19
Full
Sep 26
Last Quarter

Hourly Weather History & Observations

Time (PET) Temp. Dew Point Humidity Pressure Visibility Wind Dir Wind Speed Gust Speed Precip Events Conditions
12:00 AM 55.4 °F 51.8 °F 88% 29.98 in 5.0 mi ESE 3.5 mph - N/A   Partly Cloudy
1:00 AM 53.6 °F 50.0 °F 88% 29.98 in 5.0 mi East 3.5 mph - N/A   Scattered Clouds
2:00 AM 53.6 °F 50.0 °F 88% 29.95 in 4.3 mi East 3.5 mph - N/A   Scattered Clouds
3:00 AM 53.6 °F 50.0 °F 88% 29.95 in 4.3 mi ENE 5.8 mph - N/A   Mostly Cloudy
4:00 AM 57.2 °F 53.6 °F 88% 29.95 in 4.3 mi East 3.5 mph - N/A   Mostly Cloudy
5:00 AM 57.2 °F 53.6 °F 88% 29.95 in 3.7 mi ENE 3.5 mph - N/A   Overcast
6:00 AM 59.0 °F 55.4 °F 88% 29.98 in 3.1 mi Variable 2.3 mph - N/A   Overcast
7:00 AM 59 °F 56 °F 86% 29.97 in 2 mi 2.3 mph - -   Mist
7:00 AM 59.0 °F 55.4 °F 88% 29.98 in 2.5 mi Variable 2.3 mph - N/A   Overcast
8:00 AM 60.8 °F 59.0 °F 94% 30.01 in 2.8 mi NNE 5.8 mph - N/A   Overcast
9:00 AM 60.8 °F 59.0 °F 94% 30.01 in 2.8 mi North 3.5 mph - N/A   Overcast
10:00 AM 62 °F 58 °F 84% 30.01 in 3 mi NNW 4.6 mph - -   Mist
10:00 AM 60.8 °F 59.0 °F 94% 30.01 in 3.1 mi NNW 4.6 mph - N/A   Overcast
11:00 AM 62.6 °F 57.2 °F 82% 30.01 in 3.7 mi NNW 9.2 mph - N/A   Overcast
12:00 PM 62.6 °F 57.2 °F 82% 30.01 in 5.0 mi NNW 11.5 mph - N/A   Overcast
1:00 PM 64.4 °F 57.2 °F 77% 29.98 in 5.0 mi WNW 10.4 mph - N/A   Overcast
2:00 PM 64.4 °F 57.2 °F 77% 29.95 in 3.7 mi WNW 11.5 mph - N/A   Overcast
3:00 PM 66.2 °F 59.0 °F 78% 29.95 in 4.3 mi West 9.2 mph - N/A   Scattered Clouds
4:00 PM 64.4 °F 59.0 °F 83% 29.95 in 5.0 mi WNW 9.2 mph - N/A   Scattered Clouds
5:00 PM 62.6 °F 59.0 °F 88% 29.95 in 5.0 mi West 8.1 mph - N/A   Scattered Clouds
6:00 PM 62.6 °F 57.2 °F 82% 29.98 in 4.3 mi West 5.8 mph - N/A   Mostly Cloudy
7:00 PM 62 °F 58 °F 83% 29.99 in 4 mi West 5.8 mph - -   Mist
7:00 PM 60.8 °F 59.0 °F 94% 30.01 in 4.3 mi West 5.8 mph - N/A   Overcast
8:00 PM 60.8 °F 55.4 °F 82% 30.04 in 4.3 mi Variable 2.3 mph - N/A   Overcast
9:00 PM 62.6 °F 55.4 °F 77% 30.04 in 4.3 mi Calm Calm - N/A   Overcast
10:00 PM 62 °F 56 °F 75% 30.03 in 4 mi Calm Calm - -   Mist
10:00 PM 62.6 °F 55.4 °F 77% 30.04 in 4.3 mi Calm Calm - N/A   Overcast
11:00 PM 60.8 °F 57.2 °F 88% 30.04 in 4.3 mi Calm Calm - N/A   Overcast